�������l�o���
Date,Time,MP-1(��Sv/h),MP-2(��Sv/h),MP-3(��Sv/h),MP-4(��Sv/h),MP-5(��Sv/h),MP-6(��Sv/h),MP-7(��Sv/h),����,����(m/s),���J
2018/04/21,00:00,0.319,0.199,0.324,0.308,0.301,0.162,0.098,��,2.3,��
2018/04/21,00:10,0.317,0.199,0.322,0.309,0.301,0.163,0.098,��,3.5,��
2018/04/21,00:20,0.317,0.198,0.325,0.310,0.301,0.163,0.099,��,2.9,��
2018/04/21,00:30,0.320,0.198,0.324,0.308,0.301,0.162,0.098,��쐼,4.3,��
2018/04/21,00:40,0.317,0.200,0.322,0.308,0.300,0.162,0.098,��쐼,5.5,��
2018/04/21,00:50,0.318,0.199,0.324,0.308,0.302,0.162,0.099,��쐼,3.5,��
2018/04/21,01:00,0.318,0.199,0.323,0.308,0.301,0.162,0.099,��쐼,4.1,��
2018/04/21,01:10,0.317,0.199,0.323,0.310,0.302,0.162,0.098,��쐼,7.4,��
2018/04/21,01:20,0.320,0.199,0.325,0.310,0.302,0.162,0.098,��쐼,7.4,��
2018/04/21,01:30,0.318,0.199,0.323,0.309,0.301,0.162,0.098,��쐼,7.9,��
2018/04/21,01:40,0.317,0.198,0.324,0.309,0.301,0.163,0.098,��쐼,7.5,��
2018/04/21,01:50,0.319,0.198,0.324,0.308,0.301,0.163,0.099,�쐼,6.2,��
2018/04/21,02:00,0.318,0.198,0.323,0.310,0.301,0.162,0.098,��쐼,5.5,��
2018/04/21,02:10,0.319,0.200,0.323,0.309,0.301,0.163,0.098,�쐼,8.2,��
2018/04/21,02:20,0.319,0.199,0.324,0.309,0.300,0.161,0.098,��쐼,6.7,��
2018/04/21,02:30,0.317,0.199,0.322,0.309,0.302,0.162,0.098,��쐼,4.9,��
2018/04/21,02:40,0.319,0.200,0.323,0.308,0.301,0.163,0.099,��쐼,4.3,��
2018/04/21,02:50,0.317,0.200,0.322,0.308,0.303,0.162,0.097,�쐼,7.2,��
2018/04/21,03:00,0.318,0.199,0.323,0.308,0.301,0.162,0.098,��쐼,7.1,��
2018/04/21,03:10,0.320,0.199,0.324,0.307,0.300,0.162,0.097,�쐼,5.7,��
2018/04/21,03:20,0.318,0.199,0.322,0.310,0.302,0.163,0.098,��쐼,5.6,��
2018/04/21,03:30,0.320,0.199,0.324,0.309,0.300,0.161,0.098,��쐼,6.6,��
2018/04/21,03:40,0.318,0.199,0.323,0.307,0.302,0.163,0.098,��쐼,5.7,��
2018/04/21,03:50,0.318,0.198,0.325,0.309,0.301,0.162,0.097,��쐼,5.4,��
2018/04/21,04:00,0.319,0.199,0.323,0.307,0.301,0.161,0.098,��쐼,7.3,��
2018/04/21,04:10,0.317,0.199,0.323,0.310,0.301,0.163,0.098,��쐼,5.3,��
2018/04/21,04:20,0.318,0.198,0.323,0.309,0.299,0.161,0.098,��쐼,6.3,��
2018/04/21,04:30,0.318,0.199,0.322,0.308,0.302,0.162,0.097,�쐼,6.1,��
2018/04/21,04:40,0.318,0.198,0.324,0.307,0.300,0.161,0.098,��쐼,4.9,��
2018/04/21,04:50,0.318,0.198,0.323,0.308,0.300,0.163,0.097,�쐼,5.1,��
2018/04/21,05:00,0.317,0.199,0.324,0.310,0.300,0.163,0.098,�쐼,3.5,��
2018/04/21,05:10,0.319,0.198,0.322,0.307,0.300,0.162,0.098,�쐼,4.1,��
2018/04/21,05:20,0.316,0.198,0.323,0.309,0.301,0.162,0.097,�쐼,5.7,��
2018/04/21,05:30,0.319,0.199,0.324,0.309,0.299,0.162,0.097,��쐼,6.5,��
2018/04/21,05:40,0.319,0.198,0.323,0.309,0.302,0.163,0.098,��쐼,7.3,��
2018/04/21,05:50,0.317,0.200,0.325,0.309,0.299,0.163,0.097,�쐼,8.3,��
2018/04/21,06:00,0.319,0.198,0.323,0.306,0.300,0.161,0.098,�쐼,8.5,��
2018/04/21,06:10,0.317,0.197,0.323,0.310,0.299,0.161,0.097,���쐼,6.8,��
2018/04/21,06:20,0.318,0.198,0.322,0.308,0.300,0.162,0.098,���쐼,4.3,��
2018/04/21,06:30,0.316,0.197,0.323,0.309,0.300,0.161,0.097,���쐼,3.4,��
2018/04/21,06:40,0.317,0.199,0.322,0.307,0.300,0.161,0.097,�쐼,3.1,��
2018/04/21,06:50,0.317,0.198,0.323,0.310,0.301,0.160,0.097,�쐼,3.5,��
2018/04/21,07:00,0.316,0.198,0.322,0.306,0.301,0.162,0.098,���쐼,1.7,��
2018/04/21,07:10,0.317,0.198,0.323,0.309,0.301,0.161,0.098,�쐼,1.5,��
2018/04/21,07:20,0.316,0.199,0.320,0.306,0.301,0.162,0.096,��쐼,2.0,��
2018/04/21,07:30,0.318,0.197,0.321,0.306,0.299,0.160,0.098,��쐼,1.6,��
2018/04/21,07:40,0.318,0.199,0.322,0.309,0.301,0.162,0.097,��,2.2,��
2018/04/21,07:50,0.315,0.199,0.323,0.305,0.300,0.162,0.097,��,2.9,��
2018/04/21,08:00,0.318,0.197,0.323,0.306,0.302,0.162,0.097,��,3.7,��
2018/04/21,08:10,0.314,0.197,0.321,0.310,0.299,0.162,0.097,��,5.0,��
2018/04/21,08:20,0.316,0.199,0.324,0.308,0.302,0.162,0.098,��,5.1,��
2018/04/21,08:30,0.318,0.198,0.322,0.305,0.301,0.162,0.096,��,6.2,��
2018/04/21,08:40,0.316,0.196,0.325,0.305,0.297,0.161,0.097,��,7.4,��
2018/04/21,08:50,0.314,0.199,0.322,0.310,0.301,0.162,0.099,��,8.2,��
2018/04/21,09:00,0.316,0.199,0.325,0.309,0.300,0.162,0.098,��,9.8,��
2018/04/21,09:10,0.318,0.199,0.326,0.307,0.298,0.162,0.097,��,9.3,��
2018/04/21,09:20,0.317,0.198,0.322,0.305,0.302,0.162,0.098,��,10.3,��
2018/04/21,09:30,0.313,0.199,0.324,0.309,0.300,0.162,0.097,��,10.4,��
2018/04/21,09:40,0.318,0.198,0.322,0.310,0.298,0.161,0.097,��,11.2,��
2018/04/21,09:50,0.317,0.198,0.324,0.308,0.299,0.162,0.098,��,10.3,��
2018/04/21,10:00,0.317,0.198,0.325,0.307,0.302,0.162,0.098,��,10.0,��
2018/04/21,10:10,0.315,0.200,0.322,0.305,0.299,0.161,0.098,��,9.3,��
2018/04/21,10:20,0.313,0.199,0.325,0.305,0.298,0.162,0.098,��,10.0,��
2018/04/21,10:30,0.314,0.198,0.323,0.309,0.297,0.162,0.098,��,11.2,��
2018/04/21,10:40,0.318,0.197,0.321,0.312,0.302,0.162,0.098,��,10.9,��
2018/04/21,10:50,0.320,0.199,0.319,0.310,0.303,0.162,0.097,��,10.9,��
2018/04/21,11:00,0.318,0.200,0.320,0.309,0.301,0.163,0.097,��,11.7,��
2018/04/21,11:10,0.317,0.199,0.320,0.308,0.300,0.163,0.098,��,11.2,��
2018/04/21,11:20,0.315,0.199,0.323,0.307,0.299,0.162,0.098,��,11.8,��
2018/04/21,11:30,0.315,0.197,0.325,0.307,0.298,0.161,0.098,��,10.4,��
2018/04/21,11:40,0.314,0.200,0.323,0.306,0.299,0.163,0.098,��,11.1,��
2018/04/21,11:50,0.315,0.200,0.323,0.308,0.303,0.162,0.099,��,12.6,��
2018/04/21,12:00,0.316,0.200,0.322,0.307,0.301,0.162,0.097,��,12.5,��
2018/04/21,12:10,0.317,0.199,0.323,0.308,0.300,0.162,0.097,��,9.8,��
2018/04/21,12:20,0.320,0.198,0.321,0.307,0.300,0.161,0.099,��,9.5,��
2018/04/21,12:30,0.318,0.199,0.323,0.307,0.298,0.162,0.099,��,9.2,��
2018/04/21,12:40,0.318,0.201,0.323,0.308,0.299,0.163,0.097,��쐼,10.7,��
2018/04/21,12:50,0.316,0.198,0.322,0.310,0.298,0.163,0.098,��쐼,10.7,��
2018/04/21,13:00,0.316,0.199,0.322,0.313,0.298,0.163,0.099,��쐼,11.7,��
2018/04/21,13:10,0.317,0.199,0.324,0.313,0.299,0.162,0.098,��,11.2,��
2018/04/21,13:20,0.320,0.199,0.324,0.310,0.298,0.163,0.098,��쐼,11.5,��
2018/04/21,13:30,0.319,0.198,0.324,0.309,0.298,0.162,0.098,��쐼,10.4,��
2018/04/21,13:40,0.319,0.197,0.324,0.308,0.299,0.163,0.098,��,10.6,��
2018/04/21,13:50,0.317,0.199,0.325,0.308,0.300,0.164,0.098,��,9.8,��
2018/04/21,14:00,0.317,0.200,0.324,0.309,0.299,0.163,0.098,��,10.6,��
2018/04/21,14:10,0.315,0.200,0.323,0.308,0.300,0.162,0.098,��,10.9,��
2018/04/21,14:20,0.315,0.200,0.324,0.309,0.301,0.163,0.098,��,11.2,��
2018/04/21,14:30,0.315,0.198,0.322,0.307,0.300,0.163,0.099,��,12.3,��
2018/04/21,14:40,0.315,0.201,0.325,0.309,0.300,0.164,0.098,��,14.2,��
2018/04/21,14:50,0.319,0.200,0.322,0.313,0.299,0.164,0.099,��,11.4,��
2018/04/21,15:00,0.322,0.200,0.323,0.313,0.303,0.162,0.098,��,11.5,��
2018/04/21,15:10,0.319,0.199,0.321,0.310,0.305,0.163,0.098,��쐼,12.5,��
2018/04/21,15:20,0.317,0.201,0.322,0.315,0.304,0.163,0.099,��쐼,12.2,��
2018/04/21,15:30,0.317,0.201,0.326,0.313,0.300,0.164,0.098,��쐼,12.5,��
2018/04/21,15:40,0.317,0.200,0.326,0.309,0.301,0.162,0.099,��쐼,11.2,��
2018/04/21,15:50,0.322,0.201,0.325,0.313,0.300,0.163,0.098,��쐼,11.8,��
2018/04/21,16:00,0.320,0.201,0.324,0.312,0.300,0.163,0.098,��쐼,10.6,��
2018/04/21,16:10,0.318,0.201,0.328,0.309,0.299,0.163,0.099,��쐼,9.8,��
2018/04/21,16:20,0.320,0.202,0.327,0.312,0.300,0.163,0.098,��쐼,9.8,��
2018/04/21,16:30,0.321,0.201,0.324,0.313,0.300,0.162,0.098,��쐼,9.6,��
2018/04/21,16:40,0.319,0.200,0.326,0.309,0.299,0.162,0.098,��쐼,10.0,��
2018/04/21,16:50,0.316,0.202,0.328,0.312,0.299,0.162,0.098,��쐼,8.2,��
2018/04/21,17:00,0.321,0.199,0.326,0.312,0.300,0.164,0.098,��쐼,8.8,��
2018/04/21,17:10,0.320,0.201,0.323,0.310,0.305,0.164,0.099,��쐼,8.9,��
2018/04/21,17:20,0.317,0.201,0.326,0.312,0.304,0.162,0.099,��쐼,7.6,��
2018/04/21,17:30,0.321,0.199,0.325,0.313,0.302,0.163,0.098,��쐼,6.5,��
2018/04/21,17:40,0.320,0.201,0.325,0.310,0.301,0.163,0.100,��쐼,6.0,��
2018/04/21,17:50,0.318,0.200,0.328,0.312,0.306,0.162,0.099,��쐼,5.5,��
2018/04/21,18:00,0.322,0.200,0.327,0.313,0.304,0.164,0.099,��쐼,4.6,��
2018/04/21,18:10,0.319,0.201,0.326,0.309,0.301,0.163,0.099,��쐼,4.0,��
2018/04/21,18:20,0.320,0.201,0.329,0.314,0.304,0.163,0.100,��쐼,4.8,��
2018/04/21,18:30,0.320,0.201,0.325,0.310,0.301,0.164,0.098,��쐼,4.8,��
2018/04/21,18:40,0.319,0.200,0.328,0.313,0.305,0.163,0.098,�쐼,4.7,��
2018/04/21,18:50,0.321,0.201,0.325,0.312,0.304,0.163,0.099,�쐼,4.2,��
2018/04/21,19:00,0.319,0.201,0.328,0.311,0.304,0.163,0.099,�쐼,3.8,��
2018/04/21,19:10,0.322,0.201,0.326,0.315,0.305,0.163,0.099,�쐼,5.2,��
2018/04/21,19:20,0.318,0.202,0.326,0.311,0.302,0.163,0.098,���쐼,5.7,��
2018/04/21,19:30,0.321,0.200,0.328,0.314,0.306,0.163,0.099,���쐼,6.0,��
2018/04/21,19:40,0.320,0.201,0.325,0.311,0.301,0.163,0.098,���쐼,4.8,��
2018/04/21,19:50,0.321,0.201,0.328,0.314,0.305,0.163,0.099,���쐼,3.1,��
2018/04/21,20:00,0.320,0.202,0.326,0.311,0.302,0.164,0.098,��,1.3,��
2018/04/21,20:10,0.321,0.200,0.327,0.311,0.304,0.163,0.099,���k��,2.1,��
2018/04/21,20:20,0.320,0.201,0.326,0.309,0.303,0.163,0.099,���k��,2.9,��
2018/04/21,20:30,0.321,0.200,0.328,0.312,0.302,0.164,0.099,���k��,2.0,��
2018/04/21,20:40,0.319,0.200,0.326,0.310,0.303,0.164,0.099,�k��,1.7,��
2018/04/21,20:50,0.322,0.202,0.327,0.314,0.303,0.163,0.098,��,1.5,��
2018/04/21,21:00,0.318,0.201,0.326,0.311,0.304,0.163,0.099,-,CALM,��
2018/04/21,21:10,0.320,0.201,0.326,0.312,0.302,0.162,0.098,-,CALM,��
2018/04/21,21:20,0.319,0.200,0.326,0.310,0.305,0.163,0.098,�쐼,1.8,��
2018/04/21,21:30,0.321,0.201,0.328,0.314,0.303,0.163,0.099,��쐼,0.7,��
2018/04/21,21:40,0.318,0.199,0.326,0.311,0.303,0.163,0.098,-,CALM,��
2018/04/21,21:50,0.321,0.200,0.326,0.313,0.303,0.163,0.098,���k��,0.6,��
2018/04/21,22:00,0.319,0.200,0.326,0.311,0.302,0.162,0.099,�k��,1.0,��
2018/04/21,22:10,0.320,0.200,0.325,0.313,0.303,0.163,0.099,�k��,1.2,��
2018/04/21,22:20,0.320,0.200,0.328,0.311,0.302,0.163,0.100,��,1.5,��
2018/04/21,22:30,0.319,0.200,0.325,0.312,0.304,0.163,0.098,��,3.3,��
2018/04/21,22:40,0.320,0.200,0.329,0.313,0.301,0.164,0.099,���k��,2.8,��
2018/04/21,22:50,0.319,0.200,0.325,0.311,0.303,0.163,0.099,���k��,2.5,��
2018/04/21,23:00,0.321,0.200,0.328,0.312,0.301,0.164,0.099,��,2.8,��
2018/04/21,23:10,0.320,0.201,0.325,0.312,0.304,0.163,0.098,��,2.6,��
2018/04/21,23:20,0.319,0.202,0.326,0.312,0.301,0.164,0.098,�k��,0.8,��
2018/04/21,23:30,0.322,0.201,0.327,0.312,0.301,0.164,0.098,�k��,1.4,��
2018/04/21,23:40,0.319,0.201,0.325,0.311,0.302,0.163,0.098,-,CALM,��
2018/04/21,23:50,0.320,0.200,0.326,0.315,0.302,0.164,0.099,���쐼,1.6,��
